Weather in Albany

United States     42°41′04″N   73°47′56″W
temp.,
°C
wind,
m/s
gust,
m/s
humid.,
%
clouds,
%
prec.,
mm/h
press.,
hPa
HPBL,
m
26 may, thu
thu2623:00+16s41065100 0.0 1026440
02:00+14s51165100 0.0 1026451
05:00+12s41261100 0.0 1026523
08:00+13s51355100 0.0 1026621
11:00+18s61042100 0.0 10241012
14:00+22s6939100 0.0 10211496
17:00+24s6945100 0.0 10181440
20:00+19s6106387 0.0 1017691
27 may, fri
fri2723:00+17s4107662 0.0 1017453
02:00+16s4883100 0.0 1016349
05:00+16s4894100 0.0 1015324
08:00+19s478399 0.0 1014456
11:00+21sse6877100 0.0 1012627
14:00+24s696697 0.1 10101227
17:00+20s51295100 1.7 1009732
20:00+19s51295100 3.9 1009497
28 may, sat
sat2823:00+19s51195100 0.4 1008542
02:00+18s51198100 1.3 1007665
05:00+18s51197100 1.1 1005577
08:00+18s4996100 3.1 1005473
11:00+20wsw249260 1.9 1005489
14:00+18sw2596100 6.3 1005152
17:00+17wnw3989100 0.3 1007475
20:00+17wnw25922 0.9 1008138
29 may, sun
sun2923:00+14nw25977 0.3 1011149
02:00+12nnw129751 0.3 101336
05:00+11nnw119738 0.0 101419
08:00+14n12875 0.0 1017265
11:00+21n224953 0.0 10171033
14:00+24nne22365 0.0 10161495
17:00+25nw133542 0.0 10151506
20:00+19ne00658 0.0 101611
30 may, mon
mon3023:00+17sse116782 0.0 101712
02:00+15sse1166100 0.0 101815
05:00+15sse2567100 0.0 1018107
08:00+16sse128584 0.2 1019109
11:00+25ssw2450100 0.0 1017817
14:00+31w373874 0.0 10142082
17:00+30wnw5847100 0.0 10131947
20:00+23nnw258182 0.2 1014163